This demonstration page uses our WeatherBlox Daily Observations layout. Learn more.

Left ArrowRight Arrow

39.51506, -84.39828

Hourly Observations for September 19, 2015

Temp ( °F °C ) Dew Point ( °F °C ) Humidity (%) Winds ( mph kmh ) Pressure ( in mb ) Visibility ( mi km ) Precip ( " mm )
12:15 am 00:15 Partly Cloudy 72 22.4 64 18 76 76 Calm 29.88 1012 10 16.0934 0 0
12:35 am 00:35 Clear 74 23.1 65 18.4 75 75 SW 6 9 29.88 1012 10 16.0934 0 0
12:55 am 00:55 Clear 72 22.2 64 17.7 76 76 SW 6 9 29.88 1012 10 16.0934 0 0
1:15 am 01:15 Clear 69 20.8 62 16.8 78 78 SSW 5 7 29.88 1012 10 16.0934 0 0
1:35 am 01:35 Clear 73 22.6 64 17.9 75 75 SW 3 6 29.88 1012 10 16.0934 0 0
1:55 am 01:55 Clear 70 20.9 62 16.6 77 77 SSW 5 7 29.88 1012 10 16.0934 0 0
2:15 am 02:15 Clear 69 20.8 63 17.2 80 80 SW 3 6 29.85 1011 10 16.0934 0 0
2:35 am 02:35 Clear 69 20.8 64 18 84 84 WSW 3 6 29.88 1012 10 16.0934 0 0
2:55 am 02:55 Clear 69 20.8 64 17.9 84 84 SSW 3 6 29.85 1011 10 16.0934 0 0
3:15 am 03:15 Clear 71 21.5 63 17.2 77 77 SSW 5 7 29.85 1011 10 16.0934 0 0
3:35 am 03:35 Clear 69 20.8 64 18 84 84 Calm 29.85 1011 10 16.0934 0 0
3:55 am 03:55 Clear 69 20.8 63 17.1 79 79 SSW 5 7 29.85 1011 10 16.0934 0 0
4:15 am 04:15 Clear 69 20.8 65 18.1 85 85 Calm 29.85 1011 10 16.0934 0 0
4:35 am 04:35 Clear 69 20.8 65 18.2 85 85 SW 3 6 29.85 1011 10 16.0934 0 0
4:55 am 04:55 Clear 69 20.8 65 18.2 85 85 Calm 29.85 1011 10 16.0934 0 0
5:15 am 05:15 Clear 69 20.8 65 18.4 86 86 SW 3 6 29.83 1010 10 16.0934 0 0
5:35 am 05:35 Clear 69 20.8 64 17.8 83 83 WSW 5 7 29.83 1010 10 16.0934 0 0
5:55 am 05:55 Clear 69 20.8 64 17.6 82 82 W 3 6 29.83 1010 10 16.0934 0 0
6:15 am 06:15 Clear 69 20.8 64 17.7 83 83 Calm 29.83 1010 10 16.0934 0 0
6:35 am 06:35 Clear 67 19.5 63 17 86 86 SW 3 6 29.85 1011 10 16.0934 0 0
6:55 am 06:55 Clear 64 18 60 15.8 87 87 Calm 29.85 1011 10 16.0934 0 0
7:15 am 07:15 Clear 64 18 61 16 88 88 Calm 29.85 1011 10 16.0934 0 0
7:35 am 07:35 Sunny 64 18 61 16 88 88 Calm 29.85 1011 10 16.0934 0 0
7:55 am 07:55 Sunny 65 18.1 61 16 88 88 Calm 29.85 1011 10 16.0934 0 0
8:15 am 08:15 Sunny 67 19.5 63 17.4 88 88 Calm 29.85 1011 10 16.0934 0 0
8:35 am 08:35 Partly Cloudy 69 20.8 65 18.5 87 87 W 5 7 29.85 1011 10 16.0934 0 0
8:55 am 08:55 Partly Cloudy 70 21.3 63 17 77 77 SSW 7 11 29.85 1011 10 16.0934 0 0
9:15 am 09:15 Sunny 74 23.5 65 18.4 73 73 SW 9 15 29.85 1011 10 16.0934 0 0
9:35 am 09:35 Mostly Cloudy 74 23.6 62 16.9 66 66 SW 15 24 29.85 1011 10 16.0934 0 0
9:55 am 09:55 Mostly Cloudy 74 23.6 63 17.1 67 67 SW 10 17 29.85 1011 10 16.0934 0 0
10:15 am 10:15 Partly Cloudy 74 23.6 63 17.3 68 68 SSW 8 13 29.85 1011 10 16.0934 0 0
10:35 am 10:35 Partly Cloudy 74 23.6 64 17.5 69 69 SW 7 11 29.85 1011 10 16.0934 0 0
10:55 am 10:55 Partly Cloudy 74 23.6 63 17.3 68 68 SW 8 13 29.85 1011 10 16.0934 0 0
11:15 am 11:15 Mostly Cloudy 74 23.6 63 17.3 68 68 SW 8 13 29.85 1011 10 16.0934 0 0
11:35 am 11:35 Cloudy 74 23.6 63 17.3 68 68 SW 7 11 29.85 1011 10 16.0934 0 0
11:55 am 11:55 Cloudy 75 23.8 64 17.8 69 69 SW 10 17 29.88 1012 10 16.0934 0 0
12:15 pm 12:15 Cloudy 75 23.9 65 18.2 71 71 WSW 10 17 29.88 1012 10 16.0934 0 0
12:35 pm 12:35 Mostly Cloudy 77 25.1 67 19.3 70 70 WSW 12 19 29.88 1012 10 16.0934 0 0
12:55 pm 12:55 Cloudy 74 23.6 65 18.4 73 73 WSW 10 17 29.88 1012 10 16.0934 0 0
1:15 pm 13:15 Cloudy with Rain 74 23.6 66 19 75 75 WSW 8 13 29.88 1012 10 16.0934 0 0
1:35 pm 13:35 Cloudy with Drizzle 69 20.8 64 18 84 84 NW 10 17 29.91 1013 4 6.43736 0 0
1:55 pm 13:55 Cloudy with Rain 69 20.8 65 18.5 87 87 WNW 7 11 29.91 1013 1.5 2.41401 0 0
2:15 pm 14:15 Cloudy with Drizzle 69 20.8 65 18.6 87 87 WNW 7 11 29.91 1013 3 4.82802 0 0
2:35 pm 14:35 Cloudy 69 20.8 65 18.1 85 85 NW 8 13 29.91 1013 10 16.0934 0 0
2:55 pm 14:55 Cloudy 69 20.8 64 17.8 83 83 Calm 29.94 1014 10 16.0934 0 0
3:15 pm 15:15 Cloudy 69 20.8 64 17.5 82 82 NNW 6 9 29.94 1014 10 16.0934 0 0
3:35 pm 15:35 Cloudy 69 20.8 62 16.9 78 78 NW 6 9 29.94 1014 10 16.0934 0 0
3:55 pm 15:55 Mostly Cloudy 74 23.6 64 17.7 70 70 NW 7 11 29.94 1014 10 16.0934 0 0
4:15 pm 16:15 Partly Cloudy N/A N/A N/A WNW 7 11 N/A 10 16.0934 0 0
4:35 pm 16:35 Partly Cloudy 74 23.6 60 15.4 60 60 NNW 9 15 29.91 1013 10 16.0934 0 0
4:55 pm 16:55 Partly Cloudy 74 23.6 57 13.8 54 54 NNW 8 13 29.94 1014 10 16.0934 0 0
5:15 pm 17:15 Sunny 77 24.8 56 13.5 50 50 NNW 14 22 29.94 1014 10 16.0934 0 0
5:35 pm 17:35 Sunny 74 23.6 53 11.7 47 47 NNW 10 17 29.94 1014 10 16.0934 0 0
5:55 pm 17:55 Partly Cloudy 74 23.6 55 12.8 51 51 NNW 9 15 29.94 1014 10 16.0934 0 0
6:15 pm 18:15 Partly Cloudy 74 23.6 53 11.7 47 47 NNW 13 20 29.94 1014 10 16.0934 0 0
6:35 pm 18:35 Partly Cloudy 74 23.6 53 11.9 48 48 N 9 15 29.94 1014 10 16.0934 0 0
6:55 pm 18:55 Mostly Cloudy 74 23.6 53 11.9 48 48 NNW 7 11 29.94 1014 10 16.0934 0 0
7:15 pm 19:15 Partly Cloudy 72 22.1 53 11.5 51 51 NNW 7 11 29.97 1015 10 16.0934 0 0
7:35 pm 19:35 Sunny 69 20.8 53 11.5 55 55 NNW 7 11 29.97 1015 10 16.0934 0 0
7:55 pm 19:55 Clear 69 20.8 54 12.4 59 59 NNW 5 7 29.97 1015 10 16.0934 0 0
8:15 pm 20:15 Clear 67 19.5 53 11.7 61 61 NNW 5 7 29.97 1015 10 16.0934 0 0
8:35 pm 20:35 Clear 65 18.1 53 11.5 66 66 N 5 7 30 1016 10 16.0934 0 0
8:55 pm 20:55 Clear 63 17.1 52 11.3 69 69 N 5 7 30 1016 10 16.0934 0 0
9:15 pm 21:15 Clear 63 17.1 52 11.1 68 68 N 6 9 30 1016 10 16.0934 0 0
9:35 pm 21:35 Clear 62 16.6 52 11 70 70 NNW 5 7 30.03 1017 10 16.0934 0 0
9:55 pm 21:55 Clear 62 16.6 52 11 70 70 N 5 7 30.03 1017 10 16.0934 0 0
10:15 pm 22:15 Clear 61 16 51 10.7 71 71 N 5 7 30.03 1017 10 16.0934 0 0
10:35 pm 22:35 Clear 61 16 51 10.8 71 71 N 3 6 30.03 1017 10 16.0934 0 0
10:55 pm 22:55 Clear 60 15.3 51 10.7 74 74 N 5 7 30.09 1019 10 16.0934 0 0
11:15 pm 23:15 Clear 60 15.3 52 10.9 75 75 N 3 6 30.09 1019 10 16.0934 0 0
11:35 pm 23:35 Clear 60 15.3 51 10.8 75 75 Calm 30.09 1019 10 16.0934 0 0
11:55 pm 23:55 Clear 60 15.3 52 11.2 77 77 N 5 7 30.09 1019 10 16.0934 0 0

Powered by AerisWeather